Regional Weather Roundup
Issued by NWS Grand Forks, ND

Home | Current Version | Previous Version | Graphics & Text | Print | Product List | Glossary On
Versions: 1 2 3 4 5 6 7 8 9 10 11 12 13 14 15 16 17 18 19 20 21 22 23 24 25 26 27 28 29 30 31 32 33 34 35 36 37 38 39 40 41 42 43 44 45 46 47 48 49 50
000
ASUS43 KFGF 181610
RWRFGF
PRAIRIE TO PINES  WEATHER ROUNDUP
NATIONAL WEATHER SERVICE EASTERN NORTH DAKOTA/GRAND FORKS ND
1000 AM CST SAT FEB 18 2017

 **SATELLITE DATA USED TO AUGMENT SKY COVER AT AUTOMATED STATIONS**
 *****  WEATHER ACROSS EASTERN NORTH DAKOTA  *****

CITY           SKY/WX    TMP DP  RH WIND       PRES   REMARKS
GRAND FORKS    FAIR      38  30  73 W8        29.69S
GRAND FRKS AFB FAIR      40  32  73 NW7       29.70R
DEVILS LAKE    FAIR      33  29  85 W12       29.74R WCI  24
FARGO          FAIR      41  35  79 SW6       29.74R
WAHPETON ARPT  FAIR      36  32  87 SW6       29.78R
$$

 ***** WEATHER ACROSS CENTRAL AND WESTERN NORTH DAKOTA  *****

CITY           SKY/WX    TMP DP  RH WIND       PRES   REMARKS
BISMARCK       FAIR      30  27  88 E5        29.75S
MINOT          FAIR      37  30  75 W5        29.72F
JAMESTOWN      FAIR      38  32  79 W6        29.74S
MINOT AFB      NOT AVBL
GARRISON         N/A     36  29  75 NE3       29.72R
WILLISTON      FAIR      33  30  88 NE7       29.71S
DICKINSON      CLOUDY    35  31  85 E5        29.66S
HETTINGER      CLOUDY    40  29  64 SE10      29.68S
$$

 *****  OTHER AIRPORT OBSERVATIONS IN OUR AREA  *****

CITY           SKY/WX    TMP DP  RH WIND       PRES   REMARKS
WALHALLA       NOT AVBL
GRAFTON AIRPOR FAIR      37  32  81 W18G24    29.70S
VALLEY CITY AR FAIR      37  37 100 W9        29.77R
CANDO          NOT AVBL
CAVALIER APRT  FAIR      37  32  81 W14G20    29.68R
GWINNER        FAIR      37  36  93 S8        29.78R
SHEYENNE NWR     N/A     40  34  79 W8        29.95S
ROLLA          FAIR      32  32 100 W9        29.71R WCI  24
 ***** THE ABOVE OBSERVATIONS ARE NON NWS ARE NOT QUALITY
       CONTROLLED AND MAY MIS-REPORT RAIN FOR SNOW...
$$

  *****  WEATHER ACROSS NORTHERN MINNESOTA  *****

CITY           SKY/WX    TMP DP  RH WIND       PRES   REMARKS
FLAG ISLAND    FAIR      41  32  70 W21       29.57S
WARROAD        FAIR      37  32  81 W15G24    29.62R
ROSEAU         FAIR      39  32  75 W13G20    29.63S
HALLOCK        FAIR      34  28  80 CALM      29.67R
THF RVR FALLS  FAIR      36  31  82 W8        29.69R
BAUDETTE       FAIR      40  31  70 W7        29.60S
WASKISH        FAIR      37  32  81 SW10      29.65R
CROOKSTON      FAIR      36  32  87 W9        29.70R
GREENBUSH NDAW   N/A     36  30  80 W13         N/A
$$
  *****  WEATHER ACROSS CENTRAL AND WEST MINNESOTA  *****

CITY           SKY/WX    TMP DP  RH WIND       PRES   REMARKS
FOSSTON        FAIR      36  32  87 S8        29.70R
BEMIDJI        FAIR      39  32  76 W10       29.67S
PARK RAPIDS    FAIR      37  30  75 W6        29.70R
ELBOW LAKE     FAIR      38  36  90 SW3       29.78R
WADENA         FAIR      37  34  87 W9        29.73R
DETROIT LAKES  FAIR      39  34  81 CALM      29.74S
MOORHEAD       FAIR      36  34  93 SW6       29.75S
FERGUS FALLS   FAIR      37  36  93 SW6       29.80R
MORRIS MN      FAIR      39  36  87 S5        29.78R
STAPLES        FAIR      39  34  81 W7        29.74R
$$
  *****  WEATHER ELSEWHERE ACROSS MINNESOTA  *****

CITY           SKY/WX    TMP DP  RH WIND       PRES   REMARKS
DULUTH         FAIR      43  33  68 W13       29.64R
INTRNTL FALLS  FAIR      40  31  70 W14       29.59R
ELY            FAIR      39  30  70 W9G18     29.61R
CLOQUET        FAIR      45  30  57 W10G18    29.66R
WHEATON        FAIR      43  36  75 S5        29.80R
BRAINERD       FAIR      39  33  79 SW8       29.73R
HIBBING        FAIR      39  33  79 NW10G23   29.64R
ALEXANDRIA     FAIR      40  35  83 W6        29.77R
SAINT CLOUD    FAIR      42  35  76 NW9       29.76R
MINNEAPOLIS    FAIR      46  34  62 NW5       29.77R
$$

  *****  WEATHER ACROSS SOUTH DAKOTA  *****

CITY           SKY/WX    TMP DP  RH WIND       PRES   REMARKS
SIOUX FALLS    FAIR      42  36  79 NW5       29.81R
BROOKINGS      FAIR      38  33  82 CALM      29.80R
WATERTOWN      FAIR      39  34  82 SW5       29.79R
HURON          FAIR      42  33  70 NE3       29.80F
SISSETON         N/A     50  39  66 CALM      29.76R
ABERDEEN       FAIR      39  32  76 SW5       29.80R
MITCHELL       FAIR      44  33  65 CALM      29.82R
PIERRE         FAIR      40  30  67 SE6       29.75S
MOBRIDGE       FAIR      35  29  78 SE5       29.72S
RAPID CITY     FAIR      43  26  51 S12       29.64F
$$

  *****  SOME WEATHER IN NEARBY STATES *****

CITY           SKY/WX    TMP DP  RH WIND       PRES   REMARKS
GLASGOW MT     FAIR      37  30  75 E14       29.63S
GREAT FALLS MT PTSUNNY   34  27  75 CALM      29.51S
CHEYENNE WY    FAIR      40  20  44 SW5       29.77R
SCOTTSBLUFF NE FAIR      45  26  47 SE9       29.75F
OMAHA NE       FAIR      48  37  65 N5        29.84S
DES MOINES IA  FAIR      49  36  61 W3        29.83R
DAVENPORT IA   FAIR      50  39  66 NW7       29.79R
CHICAGO IL     FAIR      55  37  50 W9        29.73S
EAU CLAIRE WI  FAIR      44  35  70 NW7       29.73R
LA CROSSE WI   FAIR      48  36  63 N7        29.75R
$$

  *****  SOME NATIONAL WEATHER *****

CITY           SKY/WX    TMP DP  RH WIND       PRES   REMARKS
LA GUARDIA NY  FAIR      49  22  34 SW13      29.82F
RALEIGH NC     FAIR      64  34  32 SW8       29.97R
ATLANTA GA     LGT RAIN  49  46  90 E6        29.99S
NEW ORLEANS LA PTSUNNY   64  60  87 N3        29.95R
OKLAHOMA CITY  PTSUNNY   56  51  84 VRB3      29.83R
ALBUQUERQUE NM PTSUNNY   45  34  65 S3        29.88F
SALT LAKE CITY CLOUDY    48  35  60 S9        29.66R
LOS ANGELES CA CLOUDY    53  52  96 E7        29.55R
BOISE ID       CLOUDY    47  38  71 E16       29.46S
SEATTLE WA     LGT RAIN  42  40  92 N8        29.45S FOG
$$

*** WEATHER ACROSS MANITOBA...SASKATCHEWAN AND ONTARIO ***
                ***ONTARIO***

CITY           SKY/WX    TMP DP  RH WIND       PRES   REMARKS
GERALDTON      PTSUNNY   41  36  81 W8G18     29.33R
THUNDER BAY    MOSUNNY   43  32  65 W15       29.48R
SIOUX LOOKOUT  NOT AVBL
TORONTO        MOSUNNY   50  36  57 SW13      29.55S
BIG TROUT LK   LGT SNOW  32  32 100 NW3       29.23
PICKLE LAKE    PTSUNNY   36  32  87 W14       29.33S
DRYDEN         SUNNY     37  32  81 W12G17    29.49S
KENORA         MOSUNNY   37  32  81 W7        29.54R
$$
                *** MANITOBA***

CITY           SKY/WX    TMP DP  RH WIND       PRES   REMARKS
BRANDON        MOSUNNY   34  30  86 W10       29.68R
DAUPHIN        SUNNY     37  32  81 W16G23    29.61R
ISLAND LAKE    LGT SNOW  32  32 100 W18       29.29R WCI  20
PILOT MOUND      N/A     36  30  80 W7          N/A
THE PAS        CLOUDY    34  27  75 NW16      29.55R WCI  23
THOMPSON       CLOUDY    18  14  86 NW12      29.46R WCI   5
WINNIPEG       SUNNY     36  32  87 W14G20    29.63R
LYNN LAKE      LGT SNOW  18  16  93 N7        29.52R WCI   8
CHURCHILL      FLURRIES  12   9  85 E18       29.59R WCI  -5
GILLAM         FLURRIES  19  18  93 N15       29.38R WCI   5
$$
                ***SASKATCHEWAN***

CITY           SKY/WX    TMP DP  RH WIND       PRES   REMARKS
ESTEVAN        CLOUDY    27  25  93 W3        29.73R
KINDERSLEY     PTSUNNY   28  27  93 NE6       29.66R WCI  22
LLOYDMINSTER   PTSUNNY   28  28 100 VRB2      29.66S
PRINCE ALBERT  NOT AVBL
REGINA         CLOUDY    30  30 100 W2        29.71R
YORKTON        SUNNY     36  32  87 W10       29.66R
N. BATTLEFORD  SUNNY     27 N/A N/A N2        29.71S
LA RONGE       MOSUNNY   28  21  74 W10       29.63R WCI  19
SASKATOON      PTSUNNY   28  27  93 W3        29.71R
SWIFT CURRENT  CLOUDY    34  30  86 SE9       29.65S
$$
NOTE: THESE ARE AUTOMATED STATIONS WITH LIMITED QUALITY CONTROL
      "FAIR" INDICATES FEW OR NO CLOUDS BELOW 12,000 FEET WITH NO
      SIGNIFICANT WEATHER AND/OR OBSTRUCTIONS TO VISIBILITY.
      SKY/WX - SKY CONDITION AND SIGNIFICANT WEATHER.
      TMP - AIR TEMPERATURE.    DP   - DEWPOINT TEMPERATURE.
      RH  - RELATIVE HUMIDITY.  PRES - PRESSURE.
      HX  - HEAT INDEX.         WCI  - WIND CHILL INDEX.
$




USA.gov is the U.S. government's official web portal to all federal, state and local government web resources and services.